Bangor, ME

11:02 PM EDT on August 21, 2017 (GMT -0400)
Bangor International

Weather History for KBGR - June, 2012

Change the Weather History Date:

Thursday, June 14, 2012

  Actual Average Record
Temperature  
Mean Temperature 64 °F 63 °F  
Max Temperature 75 °F 74 °F 95 °F (1993)
Min Temperature 52 °F 52 °F 35 °F (1944)
Degree Days  
Heating Degree Days 1 4  
Month to date heating degree days 95 72  
Since 1 June heating degree days 95 72  
Since 1 July heating degree days 6603 7825  
Cooling Degree Days 0 2  
Month to date cooling degree days 0 15  
Year to date cooling degree days 13 21  
Since 1 June cooling degree days 0 15  
Growing Degree Days 14 (Base 50)    
Moisture  
Dew Point 47 °F    
Average Humidity 63    
Maximum Humidity 97    
Minimum Humidity 29    
Precipitation  
Precipitation 0.00 in 0.13 in 1.74 in (1959)
Month to date precipitation 3.32 1.86  
Year to date precipitation 17.33 17.91  
Snow  
Snow 0.00 in 0.00 in 0.00 in (2002)
Month to date snowfall 0.0 0.0  
Since 1 June snowfall 0.0 0.0  
Since 1 July snowfall 49.1 66.1  
Snow Depth 0.00 in    
Sea Level Pressure  
Sea Level Pressure 30.21 in    
Wind  
Wind Speed 7 mph (North)    
Max Wind Speed 23 mph    
Max Gust Speed 29 mph    
Visibility 10 miles    
Events      
T = Trace of Precipitation, MM = Missing Value Source: NWS Daily Summary

Daily Weather History Graph

Daily Weather History Graph

Search for Another Location

Airport or City:

Trip Planner

Search our weather history database for the weather conditions in past years. The results will help you decide how hot, cold, wet, or windy it might be!

Date:

Astronomy

Jun. 14, 2012 Rise Set
Actual Time 4:48 AM EDT 8:22 PM EDT
Civil Twilight 4:11 AM EDT 9:00 PM EDT
Nautical Twilight 3:22 AM EDT 9:49 PM EDT
Astronomical Twilight 2:18 AM EDT 10:53 PM EDT
Moon 1:38 AM EDT (6/14) 3:55 PM EDT (6/14)
Length of Visible Light 16h 48m
Length of Day
15h 34m
Waning Crescent, 21% of the Moon is Illuminated
Jun 14
Waning Crescent
Jun 19
New
Jun 26
First Quarter
Jul 3
Full
Jul 10
Last Quarter

Hourly Weather History & Observations

Time (EDT) Temp. Dew Point Humidity Pressure Visibility Wind Dir Wind Speed Gust Speed Precip Events Conditions
12:43 AM 60.8 °F 59.0 °F 94% 30.10 in 9.0 mi Calm Calm - N/A   Overcast
12:53 AM 61.0 °F 59.0 °F 93% 30.10 in 10.0 mi Calm Calm - N/A   Overcast
1:17 AM 60.8 °F 59.0 °F 94% 30.12 in 10.0 mi North 3.5 mph - N/A   Overcast
1:42 AM 60.8 °F 59.0 °F 94% 30.12 in 9.0 mi North 3.5 mph - N/A   Overcast
1:53 AM 61.0 °F 59.0 °F 93% 30.12 in 10.0 mi NNE 11.5 mph - N/A   Overcast
2:53 AM 59.0 °F 54.0 °F 83% 30.14 in 10.0 mi North 13.8 mph 23.0 mph N/A   Partly Cloudy
3:53 AM 55.9 °F 51.1 °F 84% 30.17 in 10.0 mi North 11.5 mph 20.7 mph N/A   Clear
4:53 AM 54.0 °F 50.0 °F 86% 30.19 in 10.0 mi North 6.9 mph - N/A   Scattered Clouds
5:53 AM 55.0 °F 48.9 °F 80% 30.21 in 10.0 mi North 6.9 mph - N/A   Partly Cloudy
6:53 AM 57.9 °F 48.0 °F 70% 30.22 in 10.0 mi North 9.2 mph - N/A   Scattered Clouds
7:53 AM 61.0 °F 48.0 °F 62% 30.23 in 10.0 mi North 11.5 mph - N/A   Partly Cloudy
8:53 AM 64.0 °F 46.0 °F 52% 30.25 in 10.0 mi NNE 15.0 mph 23.0 mph N/A   Clear
9:53 AM 66.0 °F 44.1 °F 45% 30.25 in 10.0 mi North 15.0 mph 25.3 mph N/A   Clear
10:53 AM 68.0 °F 42.1 °F 39% 30.25 in 10.0 mi NNE 15.0 mph 24.2 mph N/A   Clear
11:53 AM 71.1 °F 41.0 °F 34% 30.24 in 10.0 mi NNE 13.8 mph 27.6 mph N/A   Clear
12:53 PM 72.0 °F 39.9 °F 31% 30.23 in 10.0 mi North 18.4 mph 26.5 mph N/A   Clear
1:53 PM 73.0 °F 43.0 °F 34% 30.22 in 10.0 mi North 10.4 mph 25.3 mph N/A   Clear
2:53 PM 73.0 °F 42.1 °F 33% 30.22 in 10.0 mi North 18.4 mph 26.5 mph N/A   Clear
3:53 PM 73.4 °F 42.8 °F 33% 30.22 in 10.0 mi NNE 10.4 mph 20.7 mph N/A   Clear
4:53 PM 73.9 °F 42.1 °F 32% 30.21 in 10.0 mi NNE 9.2 mph 20.7 mph N/A   Clear
5:53 PM 73.0 °F 39.9 °F 30% 30.22 in 10.0 mi NNE 11.5 mph - N/A   Clear
6:53 PM 72.0 °F 39.0 °F 30% 30.23 in 10.0 mi NNE 12.7 mph - N/A   Clear
7:53 PM 68.0 °F 41.0 °F 37% 30.26 in 10.0 mi North 8.1 mph - N/A   Clear
8:53 PM 61.0 °F 44.1 °F 54% 30.28 in 10.0 mi NNW 5.8 mph - N/A   Clear
9:53 PM 57.0 °F 44.1 °F 62% 30.28 in 10.0 mi North 4.6 mph - N/A   Clear
10:53 PM 57.9 °F 44.1 °F 60% 30.29 in 10.0 mi North 8.1 mph - N/A   Clear
11:53 PM 57.9 °F 44.1 °F 60% 30.29 in 10.0 mi North 6.9 mph - N/A   Clear